Weather Roundup
Issued by NWS Chicago, IL

Home | Current Version | Previous Version | Graphics & Text | Print | Product List | Glossary On
Versions: 1 2 3 4 5 6 7 8 9 10 11 12 13 14 15 16 17 18 19 20 21 22 23 24 25 26 27 28 29 30 31 32 33 34 35 36 37 38 39 40 41 42 43 44 45 46 47 48 49 50
000
NZUS59 KLOT 031712
HRRLOT

CHICAGO AREA WEATHER ROUNDUP
NATIONAL WEATHER SERVICE CHICAGO/ROMEOVILLE IL
1200 PM CDT FRI JUL 03 2015

NOTE: "FAIR" INDICATES FEW OR NO CLOUDS BELOW 12,000 FEET WITH NO
SIGNIFICANT WEATHER AND/OR OBSTRUCTIONS TO VISIBILITY.

* THESE STATIONS ARE NOT UNDER NWS QUALITY CONTROL. THEY ALSO MAY NOT
  REPORT WEATHER SUCH AS PRECIPITATION OR FOG.

ILZ005-006-012>014-019>023-031800-
NORTHEAST ILLINOIS

CITY           SKY/WX    TMP DP  RH WIND       PRES   REMARKS
OHARE          CLOUDY    73  54  51 SE6       29.97S
MIDWAY         CLOUDY    75  55  49 NE8       29.97S
AURORA         PTSUNNY   75  56  51 NE5       29.98S
LANSING*       PTSUNNY   73  52  46 E6        29.97S
JOLIET*        PTSUNNY   74  58  58 NE3       29.97S
WAUKEGAN       MOSUNNY   69  57  65 E6        29.98S
DUPAGE AIRPORT PTSUNNY   73  55  53 VRB3      29.97F
WHEELING       MOSUNNY   73  54  51 VRB3      29.99S
KANKAKEE*      MOSUNNY   74  57  56 E8        29.96S
MORRIS*        PTSUNNY   74  56  52 NE5       29.96S
LEWIS AIRPORT* PTSUNNY   73  54  51 E7        29.98S
NORTHERLY IS     N/A     66  58  75 NE7         N/A
$$

WIZ051-052-058>065-066-070>072-031800-
SOUTHEAST WISCONSIN

CITY           SKY/WX    TMP DP  RH WIND       PRES   REMARKS
MILWAUKEE      PTSUNNY   71  54  54 E7        29.99F
KENOSHA*       MOSUNNY   72  54  53 CALM      29.99S
RACINE*        MOSUNNY   71  53  52 CALM      30.00F
BURLINGTON     MOSUNNY   71  53  51 E5        29.98F
WAUKESHA       MOSUNNY   70  52  52 CALM      30.00S
WEST BEND      PTSUNNY   72  52  49 CALM      29.98F
$$

INZ001>003-010>013-019-020-031800-
NORTHWEST INDIANA

CITY           SKY/WX    TMP DP  RH WIND       PRES   REMARKS
GARY*          PTSUNNY   70  61  73 NE6       29.98S
MICHIGAN CITY* NOT AVBL
RENSSELAER*    NOT AVBL
VALPARAISO     PTSUNNY   75  57  53 NE7       29.98S
$$

LMZ740>746-031800-
SOUTHERN LAKE MICHIGAN

STATION/POSITION TIME  SKY/WX   TEMP WIND        PRES    VSBY
                                AIR  DIR/SP/G
                 (UTC)          (F)  (DEG/KT/KT) (MB)    (MI)
HARRISON CRIB    1600            61   20/  5/  6   N/A
BURNHAM HARBOR   1700            66   30/  6/  7   N/A
CALUMET HARBOR   1600            65   20/  6/  8   N/A
BURNS HARBOR     1600            64   10/  8/  9 1015.6S
MICHIGAN CITY    1600            64  340/  7/  8   N/A
$$

ABBREVIATIONS USED IN REMARKS
   TC - TEMPERATURE IN CELSIUS
  WCI - WIND CHILL INDEX
   HX - HEAT INDEX
  VSB - VISIBILITY
$$



USA.gov is the U.S. government's official web portal to all federal, state and local government web resources and services.